Time,TemperatureF,DewpointF,PressureIn,WindDirection,WindDirectionDegrees,WindSpeedMPH,WindSpeedGustMPH,Humidity,HourlyPrecipIn,Conditions,Clouds,dailyrainin,SoftwareType,DateUTC
2013-05-11 00:07:00,70.8,59.0,30.02,ENE,74,0.0,-999.0,66,-99.99,,,0.00,weatherlink.com 1.10,2013-05-11 05:07:00,
2013-05-11 00:22:00,70.4,58.0,30.01,East,79,0.0,-999.0,65,-99.99,,,0.00,weatherlink.com 1.10,2013-05-11 05:22:00,
2013-05-11 00:37:00,70.1,58.0,30.01,ENE,60,0.0,-999.0,65,-99.99,,,0.00,weatherlink.com 1.10,2013-05-11 05:37:00,
2013-05-11 00:52:00,69.6,57.0,30.00,ENE,70,0.0,-999.0,65,-99.99,,,0.00,weatherlink.com 1.10,2013-05-11 05:52:00,
2013-05-11 01:07:00,69.3,57.0,30.00,East,88,0.0,-999.0,65,-99.99,,,0.00,weatherlink.com 1.10,2013-05-11 06:07:00,
2013-05-11 01:22:00,68.8,57.0,30.00,East,90,0.0,-999.0,66,-99.99,,,0.00,weatherlink.com 1.10,2013-05-11 06:22:00,
2013-05-11 01:37:00,68.5,57.0,30.00,East,88,0.0,-999.0,66,-99.99,,,0.00,weatherlink.com 1.10,2013-05-11 06:37:00,
2013-05-11 01:52:00,68.4,57.0,30.00,ENE,69,0.0,-999.0,66,-99.99,,,0.00,weatherlink.com 1.10,2013-05-11 06:52:00,
2013-05-11 02:07:00,68.2,56.0,30.00,NE,52,0.0,-999.0,66,-99.99,,,0.00,weatherlink.com 1.10,2013-05-11 07:07:00,
2013-05-11 02:22:00,67.9,56.0,30.00,NNW,328,0.0,-999.0,67,-99.99,,,0.00,weatherlink.com 1.10,2013-05-11 07:22:00,
2013-05-11 02:37:00,67.6,57.0,30.00,West,269,0.0,-999.0,68,-99.99,,,0.00,weatherlink.com 1.10,2013-05-11 07:37:00,
2013-05-11 02:52:00,67.1,57.0,30.01,WSW,256,0.0,-999.0,69,-99.99,,,0.00,weatherlink.com 1.10,2013-05-11 07:52:00,
2013-05-11 03:07:00,66.7,57.0,30.01,West,276,4.0,-999.0,70,-99.99,,,0.00,weatherlink.com 1.10,2013-05-11 08:07:00,
2013-05-11 03:22:00,66.2,57.0,30.02,ENE,76,0.0,-999.0,71,-99.99,,,0.00,weatherlink.com 1.10,2013-05-11 08:22:00,
2013-05-11 03:37:00,65.8,57.0,30.02,East,86,0.0,-999.0,72,-99.99,,,0.00,weatherlink.com 1.10,2013-05-11 08:37:00,
2013-05-11 03:52:00,65.7,56.0,30.03,ENE,65,0.0,-999.0,72,-99.99,,,0.00,weatherlink.com 1.10,2013-05-11 08:52:00,
2013-05-11 04:07:00,65.7,56.0,30.03,NE,37,0.0,-999.0,72,-99.99,,,0.00,weatherlink.com 1.10,2013-05-11 09:07:00,
2013-05-11 04:22:00,65.5,57.0,30.03,NE,51,4.0,-999.0,73,-99.99,,,0.00,weatherlink.com 1.10,2013-05-11 09:22:00,
2013-05-11 04:37:00,65.0,57.0,30.03,ENE,74,0.0,-999.0,74,-99.99,,,0.00,weatherlink.com 1.10,2013-05-11 09:37:00,
2013-05-11 04:52:00,64.6,56.0,30.03,East,81,0.0,-999.0,74,-99.99,,,0.00,weatherlink.com 1.10,2013-05-11 09:52:00,
2013-05-11 05:07:00,64.1,56.0,30.03,ENE,57,0.0,-999.0,74,-99.99,,,0.00,weatherlink.com 1.10,2013-05-11 10:07:00,
2013-05-11 05:22:00,63.7,55.0,30.02,ENE,71,0.0,-999.0,74,-99.99,,,0.00,weatherlink.com 1.10,2013-05-11 10:22:00,
2013-05-11 05:37:00,63.3,55.0,30.03,East,82,0.0,-999.0,75,-99.99,,,0.00,weatherlink.com 1.10,2013-05-11 10:37:00,
2013-05-11 05:52:00,63.1,55.0,30.05,NE,48,0.0,-999.0,75,-99.99,,,0.00,weatherlink.com 1.10,2013-05-11 10:52:00,
2013-05-11 06:07:00,62.9,55.0,30.07,ENE,68,0.0,-999.0,75,-99.99,,,0.00,weatherlink.com 1.10,2013-05-11 11:07:00,
2013-05-11 06:22:00,62.5,55.0,30.08,ENE,68,0.0,-999.0,76,-99.99,,,0.00,weatherlink.com 1.10,2013-05-11 11:22:00,
2013-05-11 06:37:00,62.0,55.0,30.09,ENE,65,0.0,-999.0,77,-99.99,,,0.00,weatherlink.com 1.10,2013-05-11 11:37:00,
2013-05-11 06:52:00,61.8,55.0,30.08,East,95,2.0,-999.0,77,-99.99,,,0.00,weatherlink.com 1.10,2013-05-11 11:52:00,
2013-05-11 07:07:00,61.9,55.0,30.08,NE,41,0.0,-999.0,77,-99.99,,,0.00,weatherlink.com 1.10,2013-05-11 12:07:00,
2013-05-11 07:22:00,62.2,55.0,30.09,South,188,0.0,-999.0,78,-99.99,,,0.00,weatherlink.com 1.10,2013-05-11 12:22:00,
2013-05-11 07:37:00,63.0,55.0,30.08,ENE,65,0.0,-999.0,76,-99.99,,,0.00,weatherlink.com 1.10,2013-05-11 12:37:00,
2013-05-11 07:52:00,64.1,55.0,30.08,NE,52,0.0,-999.0,73,-99.99,,,0.00,weatherlink.com 1.10,2013-05-11 12:52:00,
2013-05-11 08:07:00,64.7,55.0,30.09,ENE,60,0.0,-999.0,71,-99.99,,,0.00,weatherlink.com 1.10,2013-05-11 13:07:00,
2013-05-11 08:22:00,65.1,55.0,30.09,ENE,64,0.0,-999.0,69,-99.99,,,0.00,weatherlink.com 1.10,2013-05-11 13:22:00,
2013-05-11 08:37:00,66.4,55.0,30.10,ENE,67,0.0,-999.0,66,-99.99,,,0.00,weatherlink.com 1.10,2013-05-11 13:37:00,
2013-05-11 08:52:00,67.8,54.0,30.10,South,171,0.0,-999.0,62,-99.99,,,0.00,weatherlink.com 1.10,2013-05-11 13:52:00,
2013-05-11 09:07:00,68.8,54.0,30.09,ENE,68,0.0,-999.0,60,-99.99,,,0.00,weatherlink.com 1.10,2013-05-11 14:07:00,
2013-05-11 09:23:00,68.9,54.0,30.09,ENE,64,0.0,-999.0,59,-99.99,,,0.00,weatherlink.com 1.10,2013-05-11 14:23:00,
2013-05-11 09:38:00,70.1,54.0,30.09,WNW,300,0.0,-999.0,56,-99.99,,,0.00,weatherlink.com 1.10,2013-05-11 14:38:00,
2013-05-11 09:53:00,69.9,53.0,30.09,East,88,0.0,-999.0,56,-99.99,,,0.00,weatherlink.com 1.10,2013-05-11 14:53:00,
2013-05-11 10:08:00,70.4,54.0,30.08,SW,224,0.0,-999.0,56,-99.99,,,0.00,weatherlink.com 1.10,2013-05-11 15:08:00,
2013-05-11 10:23:00,71.3,53.0,30.08,NE,41,3.0,-999.0,53,-99.99,,,0.00,weatherlink.com 1.10,2013-05-11 15:23:00,
2013-05-11 10:38:00,72.1,53.0,30.09,ENE,67,1.0,-999.0,52,-99.99,,,0.00,weatherlink.com 1.10,2013-05-11 15:38:00,
2013-05-11 10:53:00,71.7,52.0,30.09,NE,41,0.0,-999.0,50,-99.99,,,0.00,weatherlink.com 1.10,2013-05-11 15:53:00,
2013-05-11 11:08:00,72.3,51.0,30.10,ESE,105,9.0,-999.0,47,-99.99,,,0.00,weatherlink.com 1.10,2013-05-11 16:08:00,
2013-05-11 11:23:00,72.9,51.0,30.10,East,96,6.0,-999.0,47,-99.99,,,0.00,weatherlink.com 1.10,2013-05-11 16:23:00,
2013-05-11 11:38:00,73.4,52.0,30.10,NNE,26,5.0,-999.0,48,-99.99,,,0.00,weatherlink.com 1.10,2013-05-11 16:38:00,
2013-05-11 11:53:00,73.4,51.0,30.10,NE,44,0.0,-999.0,45,-99.99,,,0.00,weatherlink.com 1.10,2013-05-11 16:53:00,
2013-05-11 12:08:00,74.0,51.0,30.10,NNE,25,0.0,-999.0,45,-99.99,,,0.00,weatherlink.com 1.10,2013-05-11 17:08:00,
2013-05-11 12:23:00,74.8,50.0,30.10,WSW,257,5.0,-999.0,42,-99.99,,,0.00,weatherlink.com 1.10,2013-05-11 17:23:00,
2013-05-11 12:38:00,74.3,49.0,30.10,East,85,1.0,-999.0,41,-99.99,,,0.00,weatherlink.com 1.10,2013-05-11 17:38:00,
2013-05-11 12:53:00,75.2,50.0,30.10,NE,52,14.0,-999.0,42,-99.99,,,0.00,weatherlink.com 1.10,2013-05-11 17:53:00,
2013-05-11 13:08:00,75.8,50.0,30.10,NNE,29,3.0,-999.0,41,-99.99,,,0.00,weatherlink.com 1.10,2013-05-11 18:08:00,
2013-05-11 13:23:00,76.6,52.0,30.10,NE,34,6.0,-999.0,42,-99.99,,,0.00,weatherlink.com 1.10,2013-05-11 18:23:00,
2013-05-11 13:38:00,76.6,50.0,30.10,East,95,0.0,-999.0,40,-99.99,,,0.00,weatherlink.com 1.10,2013-05-11 18:38:00,
2013-05-11 13:53:00,77.1,50.0,30.09,East,91,6.0,-999.0,39,-99.99,,,0.00,weatherlink.com 1.10,2013-05-11 18:53:00,
2013-05-11 14:08:00,78.5,51.0,30.09,ESE,111,1.0,-999.0,39,-99.99,,,0.00,weatherlink.com 1.10,2013-05-11 19:08:00,
2013-05-11 14:23:00,78.5,51.0,30.09,West,277,0.0,-999.0,39,-99.99,,,0.00,weatherlink.com 1.10,2013-05-11 19:23:00,
2013-05-11 14:38:00,77.8,52.0,30.09,East,81,0.0,-999.0,40,-99.99,,,0.00,weatherlink.com 1.10,2013-05-11 19:38:00,
2013-05-11 14:53:00,78.2,51.0,30.09,SW,227,3.0,-999.0,39,-99.99,,,0.00,weatherlink.com 1.10,2013-05-11 19:53:00,
2013-05-11 15:08:00,77.9,51.0,30.08,WNW,290,0.0,-999.0,39,-99.99,,,0.00,weatherlink.com 1.10,2013-05-11 20:08:00,
2013-05-11 15:23:00,78.2,51.0,30.08,ENE,62,1.0,-999.0,39,-99.99,,,0.00,weatherlink.com 1.10,2013-05-11 20:23:00,
2013-05-11 15:38:00,78.5,50.0,30.07,ENE,78,0.0,-999.0,37,-99.99,,,0.00,weatherlink.com 1.10,2013-05-11 20:38:00,
2013-05-11 15:53:00,78.7,48.0,30.07,South,169,0.0,-999.0,34,-99.99,,,0.00,weatherlink.com 1.10,2013-05-11 20:53:00,
2013-05-11 16:08:00,79.7,49.0,30.06,East,81,1.0,-999.0,34,-99.99,,,0.00,weatherlink.com 1.10,2013-05-11 21:08:00,
2013-05-11 16:23:00,79.5,49.0,30.06,NE,45,3.0,-999.0,34,-99.99,,,0.00,weatherlink.com 1.10,2013-05-11 21:23:00,
2013-05-11 16:38:00,80.1,50.0,30.06,ESE,115,1.0,-999.0,35,-99.99,,,0.00,weatherlink.com 1.10,2013-05-11 21:38:00,
2013-05-11 16:53:00,79.2,50.0,30.05,North,9,0.0,-999.0,36,-99.99,,,0.00,weatherlink.com 1.10,2013-05-11 21:53:00,
2013-05-11 17:08:00,79.2,50.0,30.06,NE,53,6.0,-999.0,36,-99.99,,,0.00,weatherlink.com 1.10,2013-05-11 22:08:00,
2013-05-11 17:23:00,79.5,50.0,30.05,West,268,3.0,-999.0,35,-99.99,,,0.00,weatherlink.com 1.10,2013-05-11 22:23:00,
2013-05-11 17:38:00,78.9,49.0,30.05,ESE,108,1.0,-999.0,35,-99.99,,,0.00,weatherlink.com 1.10,2013-05-11 22:38:00,
2013-05-11 17:53:00,78.9,48.0,30.05,NE,49,0.0,-999.0,34,-99.99,,,0.00,weatherlink.com 1.10,2013-05-11 22:53:00,
2013-05-11 18:08:00,79.5,50.0,30.05,NNE,30,3.0,-999.0,35,-99.99,,,0.00,weatherlink.com 1.10,2013-05-11 23:08:00,
2013-05-11 18:23:00,79.2,49.0,30.05,NE,56,0.0,-999.0,35,-99.99,,,0.00,weatherlink.com 1.10,2013-05-11 23:23:00,
2013-05-11 18:39:00,79.1,48.0,30.05,North,355,0.0,-999.0,34,-99.99,,,0.00,weatherlink.com 1.10,2013-05-11 23:39:00,
2013-05-11 18:53:00,78.7,47.0,30.05,South,176,0.0,-999.0,33,-99.99,,,0.00,weatherlink.com 1.10,2013-05-11 23:53:00,
2013-05-11 19:08:00,78.4,46.0,30.05,NNE,29,0.0,-999.0,32,-99.99,,,0.00,weatherlink.com 1.10,2013-05-12 00:08:00,
2013-05-11 19:23:00,77.9,47.0,30.05,ENE,59,0.0,-999.0,33,-99.99,,,0.00,weatherlink.com 1.10,2013-05-12 00:23:00,
2013-05-11 19:38:00,77.4,47.0,30.06,ENE,78,0.0,-999.0,34,-99.99,,,0.00,weatherlink.com 1.10,2013-05-12 00:38:00,
2013-05-11 19:53:00,76.8,48.0,30.07,ESE,109,0.0,-999.0,36,-99.99,,,0.00,weatherlink.com 1.10,2013-05-12 00:53:00,
2013-05-11 20:08:00,76.2,48.0,30.07,ENE,69,0.0,-999.0,37,-99.99,,,0.00,weatherlink.com 1.10,2013-05-12 01:08:00,
2013-05-11 20:23:00,75.6,48.0,30.08,East,95,0.0,-999.0,38,-99.99,,,0.00,weatherlink.com 1.10,2013-05-12 01:23:00,
2013-05-11 20:38:00,74.9,48.0,30.08,East,95,0.0,-999.0,39,-99.99,,,0.00,weatherlink.com 1.10,2013-05-12 01:38:00,
2013-05-11 20:53:00,74.3,49.0,30.08,East,95,0.0,-999.0,41,-99.99,,,0.00,weatherlink.com 1.10,2013-05-12 01:53:00,
2013-05-11 21:08:00,73.7,49.0,30.08,East,95,0.0,-999.0,42,-99.99,,,0.00,weatherlink.com 1.10,2013-05-12 02:08:00,
2013-05-11 21:23:00,73.0,50.0,30.09,East,95,0.0,-999.0,44,-99.99,,,0.00,weatherlink.com 1.10,2013-05-12 02:23:00,
2013-05-11 21:38:00,71.9,50.0,30.10,East,95,0.0,-999.0,46,-99.99,,,0.00,weatherlink.com 1.10,2013-05-12 02:38:00,
2013-05-11 21:53:00,71.2,50.0,30.10,East,95,0.0,-999.0,48,-99.99,,,0.00,weatherlink.com 1.10,2013-05-12 02:53:00,
2013-05-11 22:08:00,70.7,50.0,30.11,East,95,0.0,-999.0,49,-99.99,,,0.00,weatherlink.com 1.10,2013-05-12 03:08:00,
2013-05-11 22:23:00,70.6,51.0,30.11,East,95,0.0,-999.0,50,-99.99,,,0.00,weatherlink.com 1.10,2013-05-12 03:23:00,
2013-05-11 22:38:00,69.7,51.0,30.12,East,95,0.0,-999.0,52,-99.99,,,0.00,weatherlink.com 1.10,2013-05-12 03:38:00,
2013-05-11 22:53:00,68.9,52.0,30.12,East,95,0.0,-999.0,55,-99.99,,,0.00,weatherlink.com 1.10,2013-05-12 03:53:00,
2013-05-11 23:09:00,67.9,52.0,30.13,East,95,0.0,-999.0,57,-99.99,,,0.00,weatherlink.com 1.10,2013-05-12 04:09:00,
2013-05-11 23:24:00,67.0,52.0,30.14,East,95,0.0,-999.0,59,-99.99,,,0.00,weatherlink.com 1.10,2013-05-12 04:24:00,
2013-05-11 23:39:00,68.0,51.0,30.14,East,93,0.0,-999.0,55,-99.99,,,0.00,weatherlink.com 1.10,2013-05-12 04:39:00,
2013-05-11 23:54:00,68.2,51.0,30.14,East,94,0.0,-999.0,55,-99.99,,,0.00,weatherlink.com 1.10,2013-05-12 04:54:00,